[[{"header":{"parameterUnit":"m.s-1","parameterCategory":1,"la1":30.2991,"la2":30.254,"lo1":-89.0895,"lo2":-89.0444,"dy":0.0017,"dx":0.0017,"nx":28,"ny":28,"refTime":"2025-04-12T03:00:00:Z","depth":0,"parameterNumber":2,"parameterNumberName":"U-component_of_WINDS"},"data":[0,0,0,0,0,0,0,0,0,0,0,0,0,0,0,0,0,0,0,0,0,0,0,0,0,0,0,0,0,0,0,0,0,0,0,0,0,0,0,0,0,0,0,0,0,0,0,0,0,0,0,0,0,0,0,0,0,0,-3.5027,-3.5029,0,-3.5152,-3.5153,-3.5155,-3.5144,-3.5142,-3.514,-3.5138,-3.5266,-3.5271,-3.5276,0,0,0,0,0,0,0,0,0,0,0,0,0,-3.4779,-3.4783,-3.5027,-3.5029,-3.503,-3.5152,-3.5153,-3.5155,-3.5144,-3.5142,-3.514,-3.5137,-3.5265,-3.5271,-3.5277,0,0,0,0,0,0,0,0,0,0,0,0,0,-3.4893,-3.4785,-3.5027,-3.5039,-3.5042,-3.5151,-3.5154,-3.5156,-3.5145,-3.5142,-3.5139,-3.5136,-3.5262,-3.527,-3.5278,-3.5383,0,0,-3.5301,-3.5305,0,0,0,0,0,0,0,0,-3.4887,-3.4902,-3.5036,-3.5039,-3.5042,-3.5129,-3.5113,-3.5232,-3.5145,-3.5106,-3.5138,-3.5135,-3.5223,-3.5234,-3.5264,-3.5389,-3.5394,-3.5302,-3.5307,-3.531,-3.5312,0,0,0,0,0,0,0,-3.4879,-3.4897,-3.5077,-3.5038,-3.5041,-3.5039,-3.5052,-3.5135,-3.5179,-3.5109,-3.5108,-3.5123,-3.5224,-3.5256,-3.5266,-3.5396,-3.5302,-3.5309,-3.5314,-3.5317,-3.5612,-3.5615,0,0,0,0,0,0,-3.4868,-3.489,-3.5073,-3.508,-3.4956,-3.5045,-3.506,-3.5104,-3.5178,-3.5186,-3.5126,-3.5122,-3.5244,-3.5257,-3.5271,-3.5396,-3.531,-3.5317,-3.5322,-3.5609,-3.5613,-3.5616,0,0,0,0,0,0,-3.4863,-3.4884,-3.5068,-3.4985,-3.5008,-3.5053,-3.5102,-3.5108,-3.514,-3.5191,-3.5198,-3.515,-3.5242,-3.526,-3.5355,-3.5401,-3.5321,-3.5328,-3.5605,-3.561,-3.5614,-3.565,0,0,0,0,0,0,-3.4856,-3.4883,-3.4923,-3.4986,-3.5013,-3.5149,-3.5105,-3.5113,-3.5154,-3.515,-3.5216,-3.5224,-3.5242,-3.5343,-3.5362,-3.541,-3.5334,-3.5601,-3.5607,-3.5613,-3.5645,-3.5655,-3.5664,0,0,0,0,0,-3.4847,-3.4929,-3.4925,-3.4947,-3.5064,-3.5152,-3.5167,-3.5186,-3.5157,-3.5198,-3.523,-3.5222,-3.5394,-3.5353,-3.5374,-3.5425,-3.5598,-3.5605,-3.5612,-3.564,-3.5653,-3.5664,0,0,0,0,0,0,-3.487,-3.4937,-3.4934,-3.5039,-3.509,-3.515,-3.5202,-3.5199,-3.5259,-3.5254,-3.5275,-3.5289,-3.5384,-3.5415,-3.5368,-3.553,-3.5492,-3.5504,-3.5506,-3.5518,-3.5528,-3.5517,-3.5341,0,0,0,0,0,-3.4887,-3.4953,-3.5008,-3.5095,-3.5121,-3.5157,-3.5196,-3.5206,-3.5259,-3.5281,-3.532,-3.5372,-3.5438,-3.548,-3.5544,-3.565,-3.5663,-3.5696,-3.5706,-3.5714,-3.5722,-3.5779,-3.5793,-3.5639,-3.5639,-3.5639,0,0,-3.4924,-3.4969,-3.5009,-3.5101,-3.5142,-3.5208,-3.5175,-3.5248,-3.5297,-3.5292,-3.5382,-3.5414,-3.5473,-3.5573,-3.562,-3.5602,-3.5768,-3.5723,-3.5728,-3.5733,-3.5788,-3.5802,-3.5815,-3.5644,-3.5643,-3.5643,0,0,-3.5023,-3.5065,-3.5141,-3.5182,-3.5243,-3.5267,-3.5285,-3.5346,-3.5366,-3.5458,-3.5455,-3.5514,-3.5627,-3.5669,-3.5705,-3.582,-3.5813,-3.584,-3.589,-3.5945,-3.5957,-3.5968,-3.6006,-3.602,-3.585,-3.585,-3.585,0,-3.506,-3.516,-3.518,-3.5252,-3.5292,-3.5291,-3.5367,-3.5407,-3.5486,-3.5513,-3.5493,-3.5633,-3.5674,-3.5782,-3.581,-3.5841,-3.5861,-3.5831,-3.5954,-3.5965,-3.5975,-3.6012,-3.6026,-3.5853,-3.5852,-3.5852,-3.5852,0,-3.5202,-3.5271,-3.5325,-3.5401,-3.5447,-3.5521,-3.5551,-3.5596,-3.5603,-3.5628,-3.572,-3.5769,-3.5841,-3.5868,-3.5876,-3.5978,-3.5965,-3.5949,-3.591,-3.5992,-3.6026,-3.6041,-3.5856,-3.5855,-3.5855,-3.5854,0,0,-3.5317,-3.5403,-3.5422,-3.5455,-3.5523,-3.5577,-3.5651,-3.5721,-3.5757,-3.5813,-3.5874,-3.597,-3.5955,-3.5996,-3.6008,-3.6057,-3.6141,-3.6035,-3.6036,-3.605,-3.6254,-3.6263,-3.6279,-3.6139,-3.6142,-3.6144,-3.6248,0,-3.5421,-3.5551,-3.557,-3.5684,-3.5748,-3.5748,-3.5812,-3.586,-3.5886,-3.5944,-3.5973,-3.6039,-3.6016,-3.604,-3.6089,-3.6121,-3.6182,-3.6114,-3.6194,-3.6197,-3.6175,-3.6297,-3.6307,-3.6403,-3.6262,-3.6264,-3.6266,0,-3.5559,-3.5616,-3.5736,-3.5794,-3.5821,-3.5878,-3.5943,-3.5999,-3.6053,-3.6069,-3.6115,-3.6121,-3.6197,-3.6157,-3.6261,-3.6214,-3.6249,-3.627,-3.6274,-3.6279,-3.6234,-3.6303,-3.6434,-3.6447,-3.6288,-3.6286,-3.6285,0,-3.5627,-3.5735,-3.582,-3.5849,-3.5919,-3.5959,-3.599,-3.6042,-3.6083,-3.614,-3.6166,-3.6232,-3.6267,-3.6318,-3.6341,-3.6311,-3.6443,-3.6406,-3.6456,-3.6455,-3.6481,-3.6478,-3.6616,-3.6509,-3.6509,-3.6508,-3.6508,0,-3.5738,-3.5811,-3.5851,-3.5903,-3.5984,-3.6006,-3.6086,-3.6116,-3.6162,-3.622,-3.6226,-3.6279,-3.6309,-3.6367,-3.6386,-3.6468,-3.6485,-3.6498,-3.6502,-3.6496,-3.6493,-3.6516,-3.6509,-3.6512,-3.6511,-3.6511,-3.651,0,-3.5827,-3.5857,-3.5949,-3.6008,-3.6025,-3.6081,-3.6132,-3.6182,-3.6208,-3.6281,-3.6299,-3.634,-3.6408,-3.6438,-3.6523,-3.6536,-3.6628,-3.6629,-3.6609,-3.6609,-3.6656,-3.665,-3.6811,-3.6832,-3.6714,-3.6715,-3.6716,0,-3.5894,-3.595,-3.6015,-3.6053,-3.6085,-3.6148,-3.6188,-3.6213,-3.6255,-3.6321,-3.6363,-3.6432,-3.6488,-3.6597,-3.6634,-3.6699,-3.6699,-3.6751,-3.6709,-3.67,-3.6696,-3.6691,-3.6695,-3.6757,-3.6759,-3.676,-3.676,0,-3.601,-3.6022,-3.608,-3.6144,-3.6192,-3.6244,-3.6294,-3.6326,-3.6358,-3.6405,-3.6475,-3.6518,-3.6604,-3.6671,-3.6738,-3.677,-3.677,-3.6774,-3.6788,-3.6781,-3.6766,-3.6771,-3.6626,-3.6769,-3.6768,-3.6768,-3.6767,-3.6767,-3.6088,-3.6136,-3.6189,-3.6253,-3.6294,-3.634,-3.6389,-3.6422,-3.648,-3.6551,-3.6563,-3.6637,-3.6689,-3.6779,-3.6814,-3.6871,-3.6858,-3.688,-3.6885,-3.6889,-3.689,-3.6759,-3.6884,-3.6884,-3.6884,-3.6884,-3.6884,0,-3.6201,-3.6234,-3.6294,-3.6363,-3.6414,-3.641,-3.6466,-3.6508,-3.6572,-3.6622,-3.6676,-3.6756,-3.6821,-3.6864,-3.6929,-3.6967,-3.6969,-3.6984,-3.6979,-3.6986,-3.69,-3.6879,-3.6981,-3.6981,-3.6981,-3.6981,-3.6981,-3.6981,-3.6265,-3.6346,-3.6364,-3.6465,-3.6498,-3.657,-3.6601,-3.6644,-3.6683,-3.6771,-3.6825,-3.6852,-3.6899,-3.6968,-3.7027,-3.7038,-3.7061,-3.7076,-3.7085,-3.7003,-3.6993,-3.6983,-3.6963,-3.7081,-3.7081,-3.7166,-3.7167,-3.7168]},{"header":{"parameterUnit":"m.s-1","parameterCategory":1,"la1":30.2991,"la2":30.254,"lo1":-89.0895,"lo2":-89.0444,"dy":0.0017,"dx":0.0017,"nx":28,"ny":28,"refTime":"2025-04-12T03:00:00:Z","depth":0,"parameterNumber":3,"parameterNumberName":"V-component_of_WINDS"},"data":[0,0,0,0,0,0,0,0,0,0,0,0,0,0,0,0,0,0,0,0,0,0,0,0,0,0,0,0,0,0,0,0,0,0,0,0,0,0,0,0,0,0,0,0,0,0,0,0,0,0,0,0,0,0,0,0,0,0,1.3775,1.3776,0,1.3816,1.3817,1.3817,1.3798,1.3797,1.3796,1.3795,1.3837,1.3839,1.3841,0,0,0,0,0,0,0,0,0,0,0,0,0,1.368,1.3682,1.3775,1.3776,1.3776,1.3816,1.3817,1.3817,1.3798,1.3797,1.3795,1.3794,1.3836,1.3838,1.3841,0,0,0,0,0,0,0,0,0,0,0,0,0,1.3721,1.3683,1.3775,1.3771,1.3772,1.3816,1.3817,1.3818,1.3798,1.3797,1.3795,1.3794,1.3835,1.3838,1.3841,1.3892,0,0,1.3851,1.3852,0,0,0,0,0,0,0,0,1.3719,1.3725,1.3771,1.3772,1.3772,1.38,1.3799,1.3842,1.3799,1.3788,1.3795,1.3793,1.3826,1.383,1.3841,1.3894,1.3896,1.3851,1.3853,1.3854,1.3855,0,0,0,0,0,0,0,1.3716,1.3723,1.3792,1.3772,1.3772,1.3768,1.3772,1.3807,1.3815,1.3789,1.3788,1.3793,1.3826,1.3838,1.3842,1.3896,1.3851,1.3854,1.3856,1.3857,1.3993,1.3994,0,0,0,0,0,0,1.3713,1.3721,1.379,1.3793,1.3741,1.3771,1.3775,1.3793,1.3815,1.3817,1.3794,1.3792,1.3833,1.3838,1.3843,1.3903,1.3854,1.3857,1.3859,1.3991,1.3993,1.3995,0,0,0,0,0,0,1.3712,1.372,1.3789,1.3756,1.3765,1.3774,1.3794,1.3794,1.3806,1.3819,1.382,1.3805,1.3832,1.3839,1.388,1.3904,1.3859,1.3861,1.3989,1.3992,1.3994,1.4024,0,0,0,0,0,0,1.3709,1.3719,1.3739,1.3757,1.3767,1.3825,1.3795,1.3796,1.3812,1.3809,1.3829,1.3831,1.3831,1.3875,1.3883,1.3908,1.3864,1.3987,1.399,1.3993,1.4021,1.4028,1.4033,0,0,0,0,0,1.3706,1.3746,1.374,1.3748,1.3791,1.3826,1.3832,1.3831,1.3814,1.3833,1.3841,1.383,1.3901,1.388,1.3888,1.3914,1.3985,1.3989,1.3993,1.4018,1.4026,1.4033,0,0,0,0,0,0,1.373,1.3748,1.3742,1.3789,1.3806,1.3823,1.3847,1.384,1.3862,1.3859,1.3858,1.3862,1.3905,1.3914,1.389,1.3964,1.394,1.3946,1.3957,1.3964,1.397,1.3967,1.3867,0,0,0,0,0,1.374,1.3768,1.3782,1.3822,1.3831,1.3838,1.3853,1.3852,1.387,1.3877,1.3888,1.3905,1.3931,1.3949,1.3973,1.4023,1.4027,1.4045,1.4051,1.4056,1.4061,1.4087,1.4095,1.4008,1.4008,1.4008,0,0,1.3763,1.3776,1.3794,1.3828,1.3841,1.3869,1.3844,1.3875,1.3896,1.3881,1.3921,1.393,1.3949,1.3995,1.4015,1.4004,1.4086,1.4061,1.4065,1.4067,1.4092,1.41,1.4107,1.401,1.401,1.401,0,0,1.3818,1.3831,1.3866,1.388,1.39,1.3904,1.3913,1.3931,1.3936,1.3976,1.3965,1.399,1.4035,1.405,1.4063,1.4124,1.4115,1.4132,1.4163,1.4189,1.4196,1.4202,1.4223,1.423,1.4137,1.4137,1.4137,0,1.3843,1.3885,1.3885,1.3916,1.3931,1.392,1.3955,1.3968,1.3996,1.4006,1.3993,1.4049,1.4062,1.411,1.4125,1.4137,1.4146,1.4129,1.4195,1.4201,1.4207,1.4226,1.4234,1.4139,1.4139,1.4139,1.4139,0,1.3915,1.3944,1.3969,1.3996,1.4014,1.4047,1.4052,1.407,1.4067,1.4073,1.4113,1.4128,1.4156,1.4167,1.4165,1.4215,1.4207,1.4195,1.417,1.4217,1.4235,1.4243,1.4142,1.4141,1.4141,1.414,0,0,1.3985,1.4011,1.4021,1.4032,1.4054,1.4077,1.411,1.4136,1.4152,1.4172,1.4199,1.4237,1.4226,1.4241,1.424,1.4263,1.4309,1.4247,1.4247,1.4257,1.4365,1.4373,1.4382,1.4304,1.4305,1.4306,1.4363,0,1.4041,1.4097,1.4098,1.415,1.4177,1.4167,1.4196,1.4212,1.4219,1.4242,1.4249,1.4276,1.4259,1.4268,1.4291,1.4299,1.433,1.4295,1.4328,1.4329,1.4322,1.4392,1.4401,1.4454,1.437,1.4371,1.4372,0,1.4113,1.4135,1.419,1.4208,1.4219,1.4244,1.4269,1.4292,1.431,1.4313,1.433,1.4326,1.4359,1.4335,1.4381,1.4356,1.437,1.4376,1.4378,1.438,1.4352,1.4395,1.4471,1.4478,1.4384,1.4383,1.4382,0,1.4157,1.4201,1.4239,1.4249,1.4272,1.429,1.43,1.4317,1.4333,1.4355,1.4365,1.439,1.4404,1.4424,1.4427,1.4409,1.4472,1.4448,1.4475,1.4475,1.4488,1.4486,1.4565,1.4499,1.4499,1.4499,1.4498,0,1.4219,1.4252,1.4259,1.4282,1.432,1.4321,1.4358,1.4366,1.4382,1.4407,1.44,1.4424,1.4427,1.4451,1.4454,1.449,1.4497,1.45,1.45,1.45,1.4499,1.4508,1.4504,1.4501,1.45,1.45,1.4499,0,1.4274,1.428,1.4321,1.4339,1.4344,1.4371,1.4386,1.4408,1.4414,1.4446,1.4453,1.4463,1.4491,1.4496,1.4529,1.4531,1.4575,1.4572,1.4568,1.4567,1.4594,1.4591,1.468,1.4691,1.4618,1.4619,1.462,0,1.4312,1.4338,1.4358,1.4374,1.4385,1.4412,1.4428,1.443,1.4447,1.4471,1.449,1.4518,1.454,1.4585,1.4595,1.4621,1.4617,1.4647,1.4621,1.462,1.4617,1.4614,1.4617,1.4652,1.4652,1.4653,1.4653,0,1.4379,1.4381,1.4404,1.4429,1.4449,1.4468,1.4487,1.4501,1.4505,1.4525,1.4554,1.4571,1.4605,1.4632,1.4658,1.4668,1.4661,1.4662,1.4669,1.4668,1.4665,1.4666,1.458,1.4659,1.4659,1.4658,1.4658,1.4658,1.4426,1.4448,1.4466,1.4492,1.4507,1.4524,1.4546,1.4555,1.4579,1.4606,1.4607,1.4638,1.4656,1.4689,1.4702,1.4726,1.4717,1.4728,1.473,1.4732,1.4734,1.4662,1.4731,1.4731,1.4731,1.4731,1.473,0,1.4491,1.4502,1.4527,1.4553,1.4574,1.4566,1.4587,1.4604,1.4632,1.465,1.4671,1.4704,1.4731,1.4743,1.4769,1.4786,1.4784,1.4793,1.4791,1.4794,1.4742,1.4732,1.4795,1.4795,1.4795,1.4795,1.4795,1.4795,1.4528,1.4564,1.4568,1.4612,1.4623,1.4653,1.4665,1.4681,1.4695,1.4732,1.4754,1.4762,1.4777,1.4805,1.4829,1.4832,1.4841,1.4851,1.4853,1.4804,1.4797,1.4791,1.4782,1.4854,1.4854,1.4902,1.4902,1.4903]}]]